�N����,����,�~����,�C��,���x,�C��,����,���ϕ���,�ő�u�ԕ���,�ő厞����,���˗�,�I�_���x,�n�����x,�ő啗���N��,DTYPE
"22/04/04","00:10",0.0,9.7,89.3,1022.7,324.9,3.7,5.0,330.0,0.00,8.1,11.8,"00:03:04",1
"22/04/04","00:20",0.0,9.7,89.3,1022.3,314.8,3.4,4.3,318.6,0.00,8.1,11.7,"00:10:08",1
"22/04/04","00:30",0.0,9.5,89.4,1022.3,307.5,2.6,3.7,292.2,0.00,7.9,11.7,"00:21:12",1
"22/04/04","00:40",0.0,9.4,89.5,1022.3,308.7,2.7,4.3,311.5,0.00,7.8,11.8,"00:39:28",1
"22/04/04","00:50",0.0,9.3,89.4,1022.3,316.5,3.4,4.8,324.8,0.00,7.7,11.7,"00:43:04",1
"22/04/04","01:00",0.0,9.2,89.3,1022.5,332.1,3.6,5.1,346.2,0.00,7.6,11.8,"00:59:36",1
"22/04/04","01:10",0.0,9.0,89.3,1022.5,335.2,3.4,5.4,338.1,0.00,7.4,11.8,"01:01:52",1
"22/04/04","01:20",0.0,8.9,89.2,1022.3,335.4,3.1,5.7,346.6,0.00,7.3,11.6,"01:14:24",1
"22/04/04","01:30",0.0,8.7,89.3,1022.0,337.4,3.4,5.8,318.0,0.00,7.1,11.7,"01:25:36",1
"22/04/04","01:40",0.0,8.6,89.5,1022.3,341.0,3.4,6.0,344.5,0.00,7.0,11.5,"01:39:20",1
"22/04/04","01:50",0.0,8.4,89.8,1022.0,334.4,4.0,5.7,346.1,0.00,6.9,11.5,"01:42:56",1
"22/04/04","02:00",0.0,8.3,89.9,1022.0,333.7,4.6,6.3,304.9,0.00,6.8,11.5,"01:59:12",1
"22/04/04","02:10",0.0,8.2,90.0,1022.3,345.4,3.5,5.6,344.1,0.00,6.7,11.6,"02:01:28",1
"22/04/04","02:20",0.0,8.1,90.0,1021.5,343.7,3.6,5.6,344.3,0.00,6.6,11.6,"02:13:36",1
"22/04/04","02:30",0.0,7.9,90.2,1021.5,337.9,3.9,6.2,344.2,0.00,6.4,11.4,"02:23:04",1
"22/04/04","02:40",0.0,7.7,90.5,1021.8,333.9,3.9,5.7,313.1,0.00,6.3,11.4,"02:30:40",1
"22/04/04","02:50",0.0,7.7,90.7,1021.8,330.2,4.4,5.6,313.9,0.00,6.3,11.5,"02:46:08",1
"22/04/04","03:00",0.0,7.5,90.9,1021.8,332.7,3.9,5.2,334.5,0.00,6.2,11.4,"02:53:28",1
"22/04/04","03:10",0.0,7.4,91.2,1021.5,331.2,3.5,5.7,335.1,0.00,6.1,11.3,"03:03:36",1
"22/04/04","03:20",0.0,7.3,91.4,1021.5,334.0,3.5,5.9,322.9,0.00,6.0,11.5,"03:18:40",1
"22/04/04","03:30",0.0,7.4,91.6,1021.3,331.5,3.7,5.1,330.6,0.00,6.2,11.4,"03:29:20",1
"22/04/04","03:40",0.0,7.6,91.6,1021.5,323.0,3.9,5.1,329.4,0.00,6.4,11.3,"03:35:04",1
"22/04/04","03:50",0.0,7.7,91.7,1021.1,317.8,3.5,4.8,314.2,0.00,6.5,11.2,"03:41:04",1
"22/04/04","04:00",0.0,7.8,91.6,1021.3,310.7,3.5,5.2,300.0,0.00,6.6,11.4,"03:52:40",1
"22/04/04","04:10",0.0,7.8,91.5,1021.3,297.0,2.7,4.2,314.1,0.00,6.5,11.3,"04:07:12",1
"22/04/04","04:20",0.0,7.9,91.2,1021.1,314.2,3.6,6.0,343.8,0.00,6.6,11.2,"04:17:04",1
"22/04/04","04:30",0.0,8.0,91.0,1020.8,328.3,3.1,4.9,333.9,0.00,6.7,11.1,"04:23:04",1
"22/04/04","04:40",0.0,8.0,90.7,1020.8,327.0,3.5,5.1,323.4,0.00,6.6,11.1,"04:37:36",1
"22/04/04","04:50",0.0,8.0,90.5,1021.3,314.6,3.2,5.1,322.4,0.00,6.6,11.2,"04:44:32",1
"22/04/04","05:00",0.0,8.0,90.2,1021.1,321.4,3.5,6.5,341.8,0.00,6.5,11.0,"04:58:40",1
"22/04/04","05:10",0.0,7.9,89.9,1021.1,331.2,3.6,5.2,339.0,0.00,6.4,11.0,"05:02:24",1
"22/04/04","05:20",0.0,7.7,89.9,1021.1,326.5,4.1,5.9,318.1,0.00,6.2,11.0,"05:16:18",1
"22/04/04","05:30",0.0,7.6,89.9,1020.8,326.4,3.4,4.7,339.6,0.00,6.1,11.1,"05:21:28",1
"22/04/04","05:40",0.0,7.6,89.9,1021.3,313.5,3.0,4.5,330.4,0.00,6.1,10.9,"05:31:52",1
"22/04/04","05:50",0.0,7.5,89.9,1021.3,311.2,2.3,3.7,307.4,0.00,6.0,10.9,"05:42:00",1
"22/04/04","06:00",0.0,7.5,90.0,1021.1,323.2,3.7,5.8,330.5,0.00,6.0,11.0,"05:56:24",1
"22/04/04","06:10",0.0,7.4,90.2,1021.1,326.8,4.6,5.6,332.1,0.00,5.9,11.0,"06:09:10",1
"22/04/04","06:20",0.0,7.4,90.4,1021.1,326.8,4.1,5.2,315.4,0.00,6.0,10.7,"06:13:20",1
"22/04/04","06:30",0.0,7.5,90.6,1021.1,319.0,3.7,4.8,320.6,0.00,6.1,10.9,"06:22:08",1
"22/04/04","06:40",0.0,7.5,90.7,1021.1,316.3,3.6,4.8,303.4,0.00,6.1,10.9,"06:31:44",1
"22/04/04","06:50",0.0,7.6,90.8,1021.1,322.4,3.2,4.5,342.7,0.00,6.2,10.9,"06:40:48",1
"22/04/04","07:00",0.0,7.8,90.9,1021.3,304.9,3.1,4.7,330.1,0.01,6.4,10.8,"06:50:02",1
"22/04/04","07:10",0.0,8.3,90.7,1021.3,311.7,2.8,4.3,330.0,0.03,6.9,10.8,"07:00:08",1
"22/04/04","07:20",0.0,8.7,90.1,1021.5,301.3,3.0,4.2,319.3,0.05,7.2,10.9,"07:16:56",1
"22/04/04","07:30",0.0,9.2,89.2,1021.5,308.0,2.6,4.7,318.4,0.07,7.6,10.8,"07:21:52",1
"22/04/04","07:40",0.0,9.7,87.6,1021.3,301.0,2.7,4.4,318.4,0.10,7.8,11.0,"07:38:48",1
"22/04/04","07:50",0.0,10.0,85.6,1022.0,296.2,3.2,4.7,296.7,0.12,7.7,10.6,"07:45:04",1
"22/04/04","08:00",0.0,10.5,83.1,1021.8,297.0,3.2,5.8,323.0,0.15,7.8,10.8,"07:56:16",1
"22/04/04","08:10",0.0,10.9,80.6,1022.0,305.7,2.8,4.9,300.0,0.18,7.7,10.7,"08:06:40",1
"22/04/04","08:20",0.0,11.4,78.7,1022.5,299.8,3.0,4.5,318.0,0.21,7.9,10.7,"08:11:20",1
"22/04/04","08:30",0.0,11.5,76.8,1021.8,321.8,3.6,5.4,330.5,0.23,7.6,10.7,"08:26:16",1
"22/04/04","08:40",0.0,11.9,76.4,1022.0,321.5,3.6,6.3,316.6,0.26,7.9,10.8,"08:32:00",1
"22/04/04","08:50",0.0,12.5,74.9,1022.0,332.0,3.2,6.8,348.3,0.29,8.2,10.8,"08:49:28",1
"22/04/04","09:00",0.0,12.5,73.7,1021.8,332.2,4.6,9.6,345.0,0.32,8.0,10.8,"08:58:48",1
"22/04/04","09:10",0.0,12.9,73.3,1021.5,340.7,3.9,6.6,342.6,0.34,8.3,10.8,"09:09:12",1
"22/04/04","09:20",0.0,13.2,72.7,1021.5,335.0,4.0,7.4,341.3,0.37,8.5,10.8,"09:16:08",1
"22/04/04","09:30",0.0,13.9,71.9,1021.3,334.5,3.2,6.3,344.1,0.40,9.0,11.1,"09:28:32",1
"22/04/04","09:40",0.0,13.9,70.1,1021.8,338.1,3.6,7.5,338.2,0.42,8.6,10.9,"09:35:44",1
"22/04/04","09:50",0.2,13.9,69.4,1021.5,333.6,4.4,8.1,335.1,0.44,8.4,10.9,"09:45:12",1
"22/04/04","10:00",0.0,14.4,69.1,1021.5,334.1,3.9,7.4,346.5,0.46,8.9,10.9,"09:53:28",1
"22/04/04","10:10",0.0,14.3,68.3,1020.8,336.8,4.9,8.3,319.8,0.48,8.6,11.2,"10:00:32",1
"22/04/04","10:20",0.0,14.6,67.3,1021.1,337.7,4.9,8.5,354.3,0.50,8.7,11.1,"10:13:36",1
"22/04/04","10:30",0.0,14.4,65.6,1020.8,336.1,5.5,8.9,331.8,0.52,8.1,11.2,"10:27:52",1
"22/04/04","10:40",0.0,14.9,63.7,1021.3,349.7,4.1,9.1,342.9,0.54,8.1,11.1,"10:32:16",1
"22/04/04","10:50",0.0,15.3,63.4,1021.1,344.3,3.6,6.7,345.1,0.55,8.4,11.2,"10:42:08",1
"22/04/04","11:00",0.0,15.3,62.0,1021.1,344.0,3.9,8.6,343.8,0.57,8.1,11.2,"10:56:32",1
"22/04/04","11:10",0.0,16.1,60.7,1020.8,350.6,2.3,5.7,341.0,0.58,8.6,11.3,"11:08:48",1
"22/04/04","11:20",0.0,16.5,57.4,1020.8,347.2,2.6,7.0,344.1,0.59,8.1,11.4,"11:18:56",1
"22/04/04","11:30",0.0,17.1,55.9,1020.4,14.9,1.7,4.3,339.5,0.62,8.3,11.5,"11:20:08",1
"22/04/04","11:40",0.0,16.2,57.8,1020.1,341.3,4.6,9.1,342.7,0.62,7.9,11.7,"11:32:24",1
"22/04/04","11:50",0.0,15.9,57.4,1020.4,336.2,4.7,7.3,343.1,0.61,7.5,11.6,"11:47:20",1
"22/04/04","12:00",0.0,16.0,57.4,1020.4,330.4,4.7,9.3,330.2,0.62,7.6,11.7,"11:55:52",1
"22/04/04","12:10",0.0,15.9,55.4,1020.4,337.0,4.9,9.8,320.5,0.62,7.0,11.9,"12:01:52",1
"22/04/04","12:20",0.0,16.6,52.2,1020.1,0.8,2.7,6.0,23.2,0.62,6.8,11.8,"12:13:20",1
"22/04/04","12:30",0.0,17.0,51.5,1019.9,355.5,2.7,7.4,337.0,0.63,7.0,12.1,"12:26:40",1
"22/04/04","12:40",0.0,16.4,53.4,1020.1,343.9,5.0,8.3,344.2,0.63,7.0,12.1,"12:35:52",1
"22/04/04","12:50",0.0,16.5,51.6,1019.7,344.8,4.2,8.0,352.9,0.62,6.5,12.1,"12:48:32",1
"22/04/04","13:00",0.0,17.1,50.3,1019.4,347.2,3.7,7.1,337.1,0.62,6.7,12.3,"12:50:32",1
"22/04/04","13:10",0.0,16.9,51.7,1019.2,345.9,4.1,8.6,328.6,0.61,6.9,12.3,"13:04:08",1
"22/04/04","13:20",0.0,16.8,51.3,1019.4,340.3,4.9,8.6,306.6,0.61,6.7,12.4,"13:11:04",1
"22/04/04","13:30",0.0,16.8,49.8,1019.2,341.0,4.6,7.9,317.9,0.60,6.3,12.5,"13:23:44",1
"22/04/04","13:40",0.0,16.2,52.0,1019.2,340.3,5.7,9.4,314.7,0.59,6.4,12.5,"13:35:04",1
"22/04/04","13:50",0.0,16.3,50.1,1019.2,339.1,5.6,10.2,342.1,0.58,5.9,12.6,"13:46:32",1
"22/04/04","14:00",0.0,16.5,51.8,1019.0,343.8,4.9,8.6,351.1,0.57,6.6,12.6,"13:58:08",1
"22/04/04","14:10",0.0,16.4,51.3,1019.4,352.3,4.2,10.2,349.3,0.56,6.4,12.9,"14:08:00",1
"22/04/04","14:20",0.0,16.3,49.7,1019.2,344.8,4.9,9.5,327.3,0.54,5.8,12.9,"14:18:32",1
"22/04/04","14:30",0.0,16.3,50.3,1019.2,341.1,5.2,10.2,334.6,0.53,6.0,12.9,"14:21:44",1
"22/04/04","14:40",0.0,16.1,51.7,1019.0,333.6,5.4,12.5,341.9,0.51,6.2,12.8,"14:31:20",1
"22/04/04","14:50",0.0,16.0,51.0,1018.7,338.6,6.1,13.2,341.4,0.49,5.9,13.1,"14:44:58",1
"22/04/04","15:00",0.0,15.8,50.9,1019.0,339.4,5.7,10.0,343.9,0.48,5.7,13.2,"14:58:56",1
"22/04/04","15:10",0.0,16.0,52.1,1018.7,342.0,5.7,9.8,352.2,0.46,6.2,13.2,"15:02:16",1
"22/04/04","15:20",0.0,15.8,50.5,1018.7,332.2,5.4,10.9,344.6,0.43,5.6,13.4,"15:16:16",1
"22/04/04","15:30",0.0,15.7,50.5,1019.0,343.4,4.5,8.5,336.8,0.41,5.5,13.3,"15:27:20",1
"22/04/04","15:40",0.0,15.9,50.7,1018.7,340.5,4.6,8.7,325.9,0.38,5.7,13.4,"15:37:36",1
"22/04/04","15:50",0.0,15.4,50.1,1018.7,338.8,5.9,9.5,345.6,0.36,5.1,13.3,"15:48:24",1
"22/04/04","16:00",0.0,15.4,51.9,1018.7,343.1,5.5,9.8,348.4,0.33,5.6,13.3,"15:55:20",1
"22/04/04","16:10",0.0,15.5,52.2,1018.7,346.8,4.5,8.8,350.1,0.30,5.8,13.2,"16:03:20",1
"22/04/04","16:20",0.0,15.2,52.2,1018.5,343.8,4.6,8.5,358.1,0.28,5.5,13.4,"16:12:40",1
"22/04/04","16:30",0.0,15.4,51.9,1018.7,343.9,4.1,8.7,305.0,0.25,5.6,13.4,"16:21:44",1
"22/04/04","16:40",0.0,15.1,51.6,1018.7,349.1,3.9,8.9,332.9,0.22,5.3,13.3,"16:38:32",1
"22/04/04","16:50",0.0,14.9,52.2,1019.0,356.1,3.7,12.8,351.0,0.19,5.2,13.2,"16:47:04",1
"22/04/04","17:00",0.0,14.7,53.7,1019.0,337.6,4.2,7.9,343.9,0.16,5.5,13.4,"16:52:32",1
"22/04/04","17:10",0.0,14.9,53.8,1019.0,339.4,3.1,6.8,341.5,0.14,5.7,13.3,"17:08:00",1
"22/04/04","17:20",0.0,14.7,52.5,1019.2,346.9,2.5,6.6,337.2,0.11,5.1,13.5,"17:15:20",1
"22/04/04","17:30",0.0,14.5,53.3,1019.2,350.2,2.2,5.6,339.6,0.09,5.2,13.4,"17:26:56",1
"22/04/04","17:40",0.0,14.1,55.1,1019.4,336.4,2.8,5.5,334.5,0.06,5.3,13.4,"17:38:10",1
"22/04/04","17:50",0.0,13.8,55.9,1019.0,347.9,2.6,5.4,351.6,0.04,5.2,13.3,"17:43:30",1
"22/04/04","18:00",0.0,13.5,55.5,1019.4,357.8,2.3,4.8,340.0,0.03,4.8,13.5,"17:57:22",1
"22/04/04","18:10",0.0,12.9,58.1,1019.7,326.2,2.8,7.9,322.4,0.01,4.9,13.3,"18:05:02",1
"22/04/04","18:20",0.0,12.6,59.0,1019.4,337.8,2.0,4.9,342.0,0.00,4.8,13.4,"18:14:10",1
"22/04/04","18:30",0.0,12.1,60.5,1019.4,345.7,2.0,3.4,341.9,0.00,4.7,13.3,"18:21:48",1
"22/04/04","18:40",0.0,11.6,62.2,1019.4,339.9,2.0,4.0,335.9,0.00,4.7,13.3,"18:37:38",1
"22/04/04","18:50",0.0,11.3,63.4,1019.9,335.9,1.8,3.3,350.2,0.00,4.6,13.2,"18:47:56",1
"22/04/04","19:00",0.0,10.9,64.1,1019.7,326.8,1.5,2.8,336.8,0.00,4.4,13.2,"18:57:38",1
"22/04/04","19:10",0.0,10.8,64.7,1019.7,357.4,1.5,3.7,1.4,0.00,4.5,13.1,"19:02:58",1
"22/04/04","19:20",0.0,10.6,65.1,1019.9,329.3,1.7,3.9,326.0,0.00,4.4,13.2,"19:11:12",1
"22/04/04","19:30",0.0,10.2,66.2,1019.4,335.8,1.2,2.7,355.9,0.00,4.2,13.2,"19:29:20",1
"22/04/04","19:40",0.0,9.9,67.5,1019.4,337.2,2.1,3.5,349.9,0.00,4.2,13.2,"19:31:20",1
"22/04/04","19:50",0.0,9.5,68.8,1019.9,336.7,2.2,3.7,334.3,0.00,4.1,13.1,"19:43:04",1
"22/04/04","20:00",0.0,9.3,70.1,1019.7,328.3,2.3,3.9,327.2,0.00,4.2,13.1,"19:58:24",1
"22/04/04","20:10",0.0,9.2,71.3,1019.4,324.2,3.2,5.0,301.9,0.00,4.3,12.9,"20:08:32",1
"22/04/04","20:20",0.0,9.7,71.0,1019.4,328.9,4.2,6.4,328.3,0.00,4.7,13.0,"20:14:00",1
"22/04/04","20:30",0.0,9.6,70.5,1019.7,309.4,3.6,4.5,327.9,0.00,4.5,12.9,"20:23:36",1
"22/04/04","20:40",0.0,9.5,70.8,1019.7,320.3,4.0,5.8,301.1,0.00,4.5,12.7,"20:31:44",1
"22/04/04","20:50",0.0,9.5,71.1,1019.4,328.0,4.9,7.1,324.8,0.00,4.6,12.8,"20:43:36",1
"22/04/04","21:00",0.0,9.4,71.1,1019.9,310.1,4.1,5.6,337.1,0.00,4.5,12.7,"20:50:32",1
"22/04/04","21:10",0.0,9.0,71.6,1019.7,324.6,2.6,3.4,331.0,0.00,4.2,12.7,"21:01:36",1
"22/04/04","21:20",0.0,8.7,72.3,1019.7,309.6,2.6,3.7,325.7,0.00,4.0,12.7,"21:14:24",1
"22/04/04","21:30",0.0,8.3,73.5,1020.1,304.0,3.4,5.0,258.9,0.00,3.9,12.4,"21:28:18",1
"22/04/04","21:40",0.0,8.6,73.5,1020.4,298.2,2.3,5.2,324.9,0.00,4.2,12.7,"21:30:16",1
"22/04/04","21:50",0.0,8.0,73.8,1020.1,322.3,1.5,2.1,340.7,0.00,3.7,12.7,"21:40:40",1
"22/04/04","22:00",0.0,8.0,74.8,1020.1,284.3,2.1,3.1,318.5,0.00,3.8,12.5,"21:56:00",1
"22/04/04","22:10",0.0,7.6,75.8,1020.1,301.6,2.3,4.0,337.5,0.00,3.6,12.5,"22:01:12",1
"22/04/04","22:20",0.0,7.2,76.9,1019.9,307.6,2.2,3.6,318.1,0.00,3.5,12.2,"22:12:40",1
"22/04/04","22:30",0.0,7.3,77.9,1020.1,322.6,3.0,3.9,329.0,0.00,3.7,12.2,"22:22:32",1
"22/04/04","22:40",0.0,7.6,78.2,1019.7,320.7,3.0,4.0,314.7,0.00,4.1,12.1,"22:38:24",1
"22/04/04","22:50",0.0,7.9,77.9,1019.7,296.8,3.1,4.8,309.4,0.00,4.3,12.1,"22:44:48",1
"22/04/04","23:00",0.0,7.8,77.6,1019.9,287.4,2.6,3.5,316.7,0.00,4.2,12.1,"22:50:40",1
"22/04/04","23:10",0.0,7.6,77.6,1019.9,299.2,2.8,4.3,314.0,0.00,4.0,12.0,"23:06:04",1
"22/04/04","23:20",0.0,7.5,77.9,1020.1,326.6,3.4,4.8,336.4,0.00,3.9,12.2,"23:16:16",1
"22/04/04","23:30",0.0,7.5,78.3,1019.9,332.2,3.5,4.9,314.4,0.00,4.0,12.0,"23:24:32",1
"22/04/04","23:40",0.0,7.7,78.1,1020.1,327.4,3.5,5.1,332.4,0.00,4.2,12.1,"23:30:08",1
"22/04/04","23:50",0.0,7.9,77.6,1019.7,328.8,3.9,5.9,328.2,0.00,4.3,11.8,"23:46:40",1
"22/04/04","24:00",0.0,8.2,76.7,1020.1,326.3,4.7,6.7,341.0,0.00,4.4,11.9,"23:56:56",1
